User: anonymous   Login
Location: Newark
(49.8969°N, 3.3422°E)
Time: 13:11:31
(UTC+00:00)
Language:

Tiros 1 - Orbit

View from above orbital plane
View from above orbital plane
View from above satellite
View from above satellite

Ground track
Ground track

The orbit data is extracted from the following two-line orbital elements,

1    29U 60002B   21016.13073265 -.00000121  00000-0  13026-4 0  9997
2    29  48.3807  24.9001 0023437  61.6576 298.6696 14.74398175250045
Epoch (UTC): 16 January 2021 03:08:15
Eccentricity: 0.0023437
inclination: 48.3807°
perigee height: 630 km
apogee height: 663 km
right ascension of ascending node: 24.9001°
argument of perigee: 61.6576°
revolutions per day: 14.74398175
mean anomaly at epoch: 298.6696°
orbit number at epoch: 25004

The dashed part of the orbit path shows where the satellite is in the earth's shadow,  

DLR